APK88 DGAA-DNPO

Flight info

Callsign APK88
Flight time N/A
Altitude 37000
Route EREKA1D EREKA UL433 LAG UQ300 UBERU UQ181 MOMUR DCT ARAGU ARAGU1R
Aircraft B77W/H-SDE1E2E3FGHIJ2J3J4J5M1RWXY/LB1D1

Departure

Time 2026-04-29 09:13
Airport Kotoka International Airport (DGAA)

Arrival

Time N/A
Airport Port Harcourt International Airport (DNPO)
Time Latitude Longitude Altitude Speed Heading
2026-04-29 08:54 5.60280 -0.17133 217 ft 0 kts 292°
2026-04-29 08:54 5.60282 -0.17136 218 ft 0 kts 292°
2026-04-29 08:59 5.60281 -0.17136 218 ft 0 kts 292°
2026-04-29 09:01 5.60278 -0.17127 217 ft 3 kts 292°
2026-04-29 09:02 5.60270 -0.17108 219 ft 3 kts 292°
2026-04-29 09:02 5.60263 -0.17091 219 ft 3 kts 298°
2026-04-29 09:02 5.60253 -0.17076 223 ft 3 kts 316°
2026-04-29 09:02 5.60240 -0.17065 224 ft 3 kts 339°
2026-04-29 09:03 5.60223 -0.17061 215 ft 3 kts
2026-04-29 09:03 5.60204 -0.17063 216 ft 3 kts 16°
2026-04-29 09:03 5.60192 -0.17067 220 ft 3 kts 21°
2026-04-29 09:03 5.60180 -0.17072 216 ft 3 kts 22°
2026-04-29 09:04 5.60171 -0.17075 216 ft 0 kts 22°
2026-04-29 09:05 5.60172 -0.17075 213 ft 1 kts 22°
2026-04-29 09:06 5.60195 -0.17065 222 ft 4 kts 22°
2026-04-29 09:06 5.60223 -0.17054 223 ft 4 kts 23°
2026-04-29 09:06 5.60252 -0.17041 221 ft 4 kts 22°
2026-04-29 09:06 5.60281 -0.17030 219 ft 4 kts 22°
2026-04-29 09:07 5.60310 -0.17018 224 ft 4 kts 22°
2026-04-29 09:07 5.60340 -0.17006 223 ft 4 kts 22°
2026-04-29 09:07 5.60368 -0.16994 224 ft 4 kts 22°
2026-04-29 09:07 5.60397 -0.16982 224 ft 4 kts 22°
2026-04-29 09:08 5.60435 -0.16966 223 ft 9 kts 22°
2026-04-29 09:08 5.60523 -0.16930 225 ft 16 kts 22°
2026-04-29 09:08 5.60628 -0.16886 229 ft 16 kts 22°
2026-04-29 09:08 5.60732 -0.16843 229 ft 16 kts 22°
2026-04-29 09:09 5.60837 -0.16800 227 ft 16 kts 22°
2026-04-29 09:09 5.60942 -0.16757 228 ft 16 kts 22°
2026-04-29 09:09 5.61047 -0.16714 227 ft 16 kts 23°
2026-04-29 09:09 5.61151 -0.16670 228 ft 16 kts 22°
2026-04-29 09:10 5.61256 -0.16627 230 ft 16 kts 22°
2026-04-29 09:10 5.61361 -0.16583 224 ft 17 kts 22°
2026-04-29 09:10 5.61477 -0.16535 220 ft 19 kts 22°
2026-04-29 09:10 5.61587 -0.16487 223 ft 13 kts 33°
2026-04-29 09:11 5.61616 -0.16446 219 ft 0 kts 81°
2026-04-29 09:11 5.61617 -0.16440 221 ft 2 kts 82°
2026-04-29 09:11 5.61617 -0.16423 221 ft 7 kts 94°
2026-04-29 09:11 5.61596 -0.16360 221 ft 9 kts 112°
2026-04-29 09:12 5.61548 -0.16309 223 ft 7 kts 171°
2026-04-29 09:12 5.61501 -0.16320 223 ft 14 kts 201°
2026-04-29 09:12 5.61161 -0.16459 229 ft 95 kts 202°
2026-04-29 09:12 5.60637 -0.16675 228 ft 145 kts 202°
2026-04-29 09:13 5.59173 -0.17265 730 ft 174 kts 201°
2026-04-29 09:13 5.58407 -0.17572 1232 ft 180 kts 204°
2026-04-29 09:13 5.57236 -0.18020 1979 ft 182 kts 196°
2026-04-29 09:13 5.55924 -0.18003 2439 ft 205 kts 166°
2026-04-29 09:14 5.54574 -0.17267 2675 ft 240 kts 138°
2026-04-29 09:14 5.53633 -0.15781 3078 ft 266 kts 105°
2026-04-29 09:14 5.53432 -0.13927 3855 ft 270 kts 94°
2026-04-29 09:14 5.53318 -0.12031 4782 ft 273 kts 94°
2026-04-29 09:15 5.53221 -0.10148 5854 ft 265 kts 90°
2026-04-29 09:15 5.53598 -0.08352 6700 ft 266 kts 66°
2026-04-29 09:15 5.54414 -0.06669 7431 ft 271 kts 64°
2026-04-29 09:15 5.55268 -0.04971 8315 ft 272 kts 64°
2026-04-29 09:16 5.56122 -0.03285 9282 ft 271 kts 65°
2026-04-29 09:16 5.56975 -0.01600 10182 ft 272 kts 65°
2026-04-29 09:16 5.57849 0.00133 10681 ft 290 kts 65°
2026-04-29 09:16 5.58803 0.02032 10860 ft 318 kts 65°
2026-04-29 09:17 5.59842 0.04104 11060 ft 345 kts 65°
2026-04-29 09:17 5.60948 0.06312 11577 ft 360 kts 64°
2026-04-29 09:17 5.62091 0.08591 12381 ft 368 kts 64°
2026-04-29 09:17 5.63248 0.10899 13323 ft 373 kts 64°
2026-04-29 09:18 5.64418 0.13236 14181 ft 377 kts 64°
2026-04-29 09:18 5.65607 0.15614 14941 ft 384 kts 64°
2026-04-29 09:18 5.66817 0.18034 15682 ft 391 kts 64°
2026-04-29 09:18 5.68045 0.20493 16412 ft 397 kts 64°
2026-04-29 09:19 5.69294 0.22994 17164 ft 403 kts 64°
2026-04-29 09:19 5.70436 0.25281 17848 ft 408 kts 64°
2026-04-29 09:19 5.71681 0.27773 18508 ft 414 kts 64°
2026-04-29 09:19 5.72980 0.30373 19143 ft 419 kts 64°
2026-04-29 09:20 5.74303 0.32993 19808 ft 423 kts 63°
2026-04-29 09:20 5.75691 0.35614 20460 ft 427 kts 63°
2026-04-29 09:20 5.77119 0.38253 21056 ft 433 kts 62°
2026-04-29 09:20 5.78572 0.40925 21650 ft 438 kts 62°
2026-04-29 09:21 5.80037 0.43627 22251 ft 443 kts 62°
2026-04-29 09:21 5.81512 0.46356 22859 ft 447 kts 63°
2026-04-29 09:21 5.82998 0.49116 23446 ft 451 kts 63°
2026-04-29 09:21 5.84495 0.51903 23925 ft 455 kts 63°
2026-04-29 09:22 5.86004 0.54716 24414 ft 459 kts 63°
2026-04-29 09:22 5.87522 0.57547 24911 ft 462 kts 63°
2026-04-29 09:22 5.89052 0.60398 25398 ft 465 kts 63°
2026-04-29 09:22 5.90591 0.63270 25860 ft 468 kts 63°
2026-04-29 09:23 5.92140 0.66158 26325 ft 471 kts 63°
2026-04-29 09:23 5.93700 0.69069 26798 ft 474 kts 63°
2026-04-29 09:23 5.95269 0.71996 27271 ft 477 kts 63°
2026-04-29 09:23 5.96846 0.74938 27705 ft 481 kts 63°
2026-04-29 09:24 5.98437 0.77909 28132 ft 484 kts 63°
2026-04-29 09:24 5.99858 0.80929 28516 ft 486 kts 69°
2026-04-29 09:24 6.01060 0.84109 28898 ft 489 kts 71°
2026-04-29 09:24 6.02179 0.87343 29297 ft 491 kts 72°
2026-04-29 09:25 6.03310 0.90594 29674 ft 494 kts 71°
2026-04-29 09:25 6.04489 0.93854 30012 ft 497 kts 70°
2026-04-29 09:25 6.05701 0.97101 30359 ft 497 kts 70°
2026-04-29 09:25 6.06927 1.00349 30800 ft 496 kts 70°
2026-04-29 09:26 6.08229 1.03558 31231 ft 495 kts 68°
2026-04-29 09:26 6.09612 1.06723 31691 ft 494 kts 66°
2026-04-29 09:26 6.11013 1.09865 32132 ft 493 kts 66°
2026-04-29 09:26 6.12403 1.13006 32592 ft 491 kts 67°
2026-04-29 09:27 6.13773 1.16149 33013 ft 490 kts 67°
2026-04-29 09:27 6.15126 1.19289 33446 ft 490 kts 67°
2026-04-29 09:27 6.16477 1.22429 33806 ft 490 kts 67°
2026-04-29 09:27 6.17717 1.25608 34264 ft 487 kts 72°
2026-04-29 09:28 6.18675 1.28856 34729 ft 483 kts 76°
2026-04-29 09:28 6.19321 1.32158 35150 ft 481 kts 81°
2026-04-29 09:28 6.19840 1.35472 35493 ft 480 kts 82°
2026-04-29 09:28 6.20338 1.38747 35834 ft 480 kts 82°
2026-04-29 09:29 6.20850 1.42093 36226 ft 478 kts 82°
2026-04-29 09:29 6.21877 1.48659 36863 ft 478 kts 81°
2026-04-29 09:29 6.22403 1.51971 36887 ft 482 kts 81°
2026-04-29 09:30 6.23469 1.58640 36926 ft 482 kts 81°
2026-04-29 09:30 6.24526 1.65265 36934 ft 479 kts 81°
2026-04-29 09:31 6.25579 1.71879 36944 ft 480 kts 82°
2026-04-29 09:31 6.26633 1.78506 36943 ft 480 kts 81°
2026-04-29 09:32 6.27677 1.85100 36947 ft 480 kts 81°
2026-04-29 09:32 6.28722 1.91735 36947 ft 480 kts 81°
2026-04-29 09:33 6.29768 1.98368 36945 ft 480 kts 81°
2026-04-29 09:33 6.30812 2.04999 36952 ft 480 kts 81°
2026-04-29 09:34 6.31857 2.11638 36954 ft 481 kts 81°
2026-04-29 09:34 6.32900 2.18269 36952 ft 481 kts 81°
2026-04-29 09:35 6.33944 2.24915 36954 ft 481 kts 81°
2026-04-29 09:35 6.34965 2.31425 36955 ft 481 kts 81°
2026-04-29 09:36 6.36046 2.38021 36957 ft 482 kts 78°
2026-04-29 09:36 6.37995 2.44467 36969 ft 483 kts 70°
2026-04-29 09:37 6.40359 2.50802 36962 ft 484 kts 70°
2026-04-29 09:37 6.42708 2.57152 36966 ft 484 kts 70°
2026-04-29 09:38 6.45026 2.63514 36966 ft 485 kts 70°
2026-04-29 09:38 6.47342 2.69890 36968 ft 486 kts 70°
2026-04-29 09:39 6.49667 2.76274 36968 ft 486 kts 70°
2026-04-29 09:39 6.52048 2.82641 36974 ft 487 kts 69°
2026-04-29 09:40 6.54450 2.89010 36973 ft 487 kts 70°
2026-04-29 09:40 6.56831 2.95349 36976 ft 487 kts 70°
2026-04-29 09:41 6.59219 3.01726 36977 ft 487 kts 70°
2026-04-29 09:41 6.61313 3.07324 36980 ft 487 kts 69°
2026-04-29 09:42 6.63702 3.13709 36981 ft 487 kts 69°
2026-04-29 09:42 6.66086 3.20084 36984 ft 487 kts 69°
2026-04-29 09:43 6.68473 3.26469 36983 ft 487 kts 69°
2026-04-29 09:43 6.69819 3.33077 36985 ft 485 kts 90°
2026-04-29 09:44 6.69524 3.36459 36988 ft 486 kts 101°
2026-04-29 09:44 6.68619 3.39685 36987 ft 484 kts 108°
2026-04-29 09:44 6.66372 3.46096 36981 ft 487 kts 109°
2026-04-29 09:45 6.64102 3.52524 36979 ft 488 kts 109°
2026-04-29 09:45 6.61884 3.58976 36975 ft 488 kts 109°
2026-04-29 09:46 6.59695 3.65430 36974 ft 488 kts 108°
2026-04-29 09:46 6.57642 3.71494 36969 ft 488 kts 109°
2026-04-29 09:47 6.55447 3.77962 36967 ft 488 kts 109°
2026-04-29 09:47 6.53253 3.84421 36964 ft 488 kts 109°
2026-04-29 09:48 6.51055 3.90888 36963 ft 489 kts 109°
2026-04-29 09:48 6.48869 3.97317 36955 ft 488 kts 109°
2026-04-29 09:49 6.46671 4.03780 36953 ft 488 kts 109°
2026-04-29 09:49 6.44467 4.10254 36954 ft 488 kts 109°
2026-04-29 09:50 6.42267 4.16717 36952 ft 488 kts 109°
2026-04-29 09:50 6.40069 4.23169 36947 ft 487 kts 108°
2026-04-29 09:51 6.37887 4.29573 36949 ft 487 kts 108°
2026-04-29 09:51 6.35689 4.36021 36950 ft 487 kts 108°
2026-04-29 09:52 6.33487 4.42458 36942 ft 486 kts 108°
2026-04-29 09:52 6.31286 4.48881 36944 ft 486 kts 108°
2026-04-29 09:53 6.29087 4.55302 36940 ft 485 kts 108°
2026-04-29 09:53 6.26976 4.61464 36941 ft 485 kts 108°
2026-04-29 09:54 6.24783 4.67866 36945 ft 484 kts 108°
2026-04-29 09:54 6.22589 4.74268 36939 ft 484 kts 108°
2026-04-29 09:55 6.19979 4.80479 36938 ft 485 kts 123°
2026-04-29 09:55 6.15427 4.85417 36939 ft 488 kts 144°
2026-04-29 09:56 6.09715 4.89107 36945 ft 490 kts 147°
2026-04-29 09:56 6.03939 4.92763 36945 ft 491 kts 146°
2026-04-29 09:57 5.98211 4.96497 36945 ft 491 kts 146°
2026-04-29 09:57 5.92611 5.00418 36943 ft 489 kts 136°
2026-04-29 09:58 5.88247 5.05622 36944 ft 487 kts 120°
2026-04-29 09:58 5.85215 5.11684 36947 ft 487 kts 114°
2026-04-29 09:59 5.82835 5.16811 36944 ft 487 kts 114°
2026-04-29 09:59 5.79944 5.22975 36944 ft 487 kts 114°
2026-04-29 10:00 5.77020 5.29109 36948 ft 487 kts 114°
2026-04-29 10:00 5.74075 5.35243 36947 ft 487 kts 114°
2026-04-29 10:01 5.71129 5.41378 36663 ft 491 kts 114°
2026-04-29 10:01 5.69628 5.44507 35880 ft 498 kts 114°
2026-04-29 10:01 5.68127 5.47635 35073 ft 498 kts 114°
2026-04-29 10:02 5.66640 5.50732 34209 ft 499 kts 114°
2026-04-29 10:02 5.65132 5.53875 33207 ft 500 kts 114°
2026-04-29 10:02 5.63620 5.57025 32217 ft 501 kts 114°
2026-04-29 10:02 5.62107 5.60176 31287 ft 501 kts 114°
2026-04-29 10:03 5.60606 5.63300 30623 ft 495 kts 114°
2026-04-29 10:03 5.59114 5.66405 29914 ft 490 kts 114°
2026-04-29 10:03 5.57639 5.69474 29147 ft 485 kts 114°
2026-04-29 10:03 5.56181 5.72510 28459 ft 480 kts 114°
2026-04-29 10:04 5.54740 5.75507 27786 ft 475 kts 114°
2026-04-29 10:04 5.53309 5.78486 27126 ft 470 kts 114°
2026-04-29 10:04 5.51901 5.81416 26481 ft 465 kts 114°
2026-04-29 10:04 5.50499 5.84331 25838 ft 460 kts 114°
2026-04-29 10:05 5.49115 5.87210 25196 ft 457 kts 114°
2026-04-29 10:05 5.47739 5.90071 24564 ft 453 kts 114°
2026-04-29 10:05 5.46375 5.92910 23931 ft 450 kts 114°
2026-04-29 10:05 5.45018 5.95731 23254 ft 447 kts 114°
2026-04-29 10:06 5.43691 5.98490 22557 ft 443 kts 114°
2026-04-29 10:06 5.42357 6.01263 21930 ft 438 kts 114°
2026-04-29 10:06 5.41038 6.04003 21331 ft 434 kts 114°
2026-04-29 10:06 5.39734 6.06712 20730 ft 429 kts 114°
2026-04-29 10:07 5.38444 6.09395 20139 ft 425 kts 114°
2026-04-29 10:07 5.37164 6.12055 19537 ft 421 kts 114°
2026-04-29 10:07 5.35895 6.14691 18953 ft 419 kts 114°
2026-04-29 10:07 5.34632 6.17314 18358 ft 416 kts 114°
2026-04-29 10:08 5.33450 6.19955 17715 ft 413 kts 111°
2026-04-29 10:08 5.32393 6.22613 17104 ft 409 kts 110°
2026-04-29 10:08 5.31380 6.25264 16513 ft 405 kts 109°
2026-04-29 10:08 5.30378 6.27895 15944 ft 401 kts 109°
2026-04-29 10:09 5.29378 6.30488 15379 ft 397 kts 109°
2026-04-29 10:09 5.28376 6.33057 14839 ft 393 kts 109°
2026-04-29 10:09 5.27381 6.35589 14333 ft 388 kts 109°
2026-04-29 10:09 5.26393 6.38096 13874 ft 383 kts 109°
2026-04-29 10:10 5.25422 6.40556 13448 ft 375 kts 109°
2026-04-29 10:10 5.24460 6.42994 12646 ft 377 kts 109°
2026-04-29 10:10 5.23503 6.45421 12202 ft 370 kts 109°
2026-04-29 10:10 5.22563 6.47801 11766 ft 363 kts 109°
2026-04-29 10:11 5.21667 6.50064 11053 ft 343 kts 109°
2026-04-29 10:11 5.20817 6.52210 10796 ft 310 kts 109°
2026-04-29 10:11 5.20070 6.54094 10643 ft 280 kts 109°
2026-04-29 10:11 5.19377 6.55845 10499 ft 255 kts 108°
2026-04-29 10:12 5.18840 6.57208 10433 ft 247 kts 108°
2026-04-29 10:12 5.18264 6.58675 10351 ft 250 kts 108°
2026-04-29 10:12 5.17594 6.60393 10273 ft 273 kts 109°
2026-04-29 10:12 5.16999 6.61910 10172 ft 276 kts 108°
2026-04-29 10:13 5.16288 6.63713 10046 ft 271 kts 108°
2026-04-29 10:13 5.15590 6.65483 9830 ft 280 kts 109°
2026-04-29 10:13 5.14857 6.67348 9631 ft 294 kts 109°
2026-04-29 10:13 5.14102 6.69261 9553 ft 293 kts 109°
2026-04-29 10:14 5.13356 6.71148 9377 ft 288 kts 109°
2026-04-29 10:14 5.12632 6.72977 9294 ft 276 kts 109°
2026-04-29 10:14 5.11944 6.74716 9118 ft 259 kts 109°
2026-04-29 10:14 5.11308 6.76322 8947 ft 236 kts 109°
2026-04-29 10:15 5.10730 6.77785 8772 ft 215 kts 109°
2026-04-29 10:15 5.10198 6.79131 8433 ft 203 kts 109°
2026-04-29 10:15 5.09684 6.80436 7935 ft 199 kts 110°
2026-04-29 10:15 5.09202 6.81731 7363 ft 197 kts 101°
2026-04-29 10:16 5.09285 6.83090 6719 ft 201 kts 74°
2026-04-29 10:16 5.09799 6.84392 6439 ft 204 kts 69°
2026-04-29 10:16 5.10390 6.85731 6119 ft 210 kts 68°
2026-04-29 10:16 5.10995 6.87094 5846 ft 217 kts 68°
2026-04-29 10:17 5.11622 6.88506 5564 ft 226 kts 68°
2026-04-29 10:17 5.12261 6.89949 5240 ft 232 kts 68°
2026-04-29 10:17 5.13010 6.91349 4949 ft 223 kts 51°
2026-04-29 10:17 5.14197 6.92270 4711 ft 209 kts 32°
2026-04-29 10:18 5.15444 6.92953 4510 ft 199 kts 30°
2026-04-29 10:18 5.16681 6.93608 4434 ft 205 kts 30°
2026-04-29 10:18 5.17944 6.94279 4181 ft 204 kts 30°
2026-04-29 10:18 5.19116 6.95037 3939 ft 198 kts 53°
2026-04-29 10:19 5.19605 6.96274 3757 ft 193 kts 94°
2026-04-29 10:19 5.19291 6.97558 3624 ft 191 kts 117°
2026-04-29 10:19 5.18688 6.98748 3411 ft 191 kts 121°
2026-04-29 10:19 5.18061 6.99913 3185 ft 188 kts 121°
2026-04-29 10:20 5.17440 7.01057 2990 ft 187 kts 124°
2026-04-29 10:20 5.16532 7.01921 2761 ft 180 kts 162°
2026-04-29 10:20 5.15300 7.01936 2616 ft 182 kts 196°
2026-04-29 10:20 5.14187 7.01525 2415 ft 185 kts 200°
2026-04-29 10:21 5.13019 7.01057 2228 ft 173 kts 202°
2026-04-29 10:21 5.12001 7.00569 2049 ft 152 kts 207°
2026-04-29 10:21 5.11079 7.00082 1931 ft 150 kts 206°
2026-04-29 10:21 5.10175 6.99597 1704 ft 139 kts 207°
2026-04-29 10:22 5.09325 6.99140 1542 ft 143 kts 206°
2026-04-29 10:22 5.08455 6.98670 1339 ft 140 kts 207°
2026-04-29 10:22 5.07575 6.98196 1166 ft 146 kts 206°
2026-04-29 10:22 5.06665 6.97706 983 ft 149 kts 205°
2026-04-29 10:23 5.05775 6.97223 793 ft 146 kts 206°
2026-04-29 10:23 5.04881 6.96723 618 ft 147 kts 207°
2026-04-29 10:23 5.03980 6.96236 446 ft 148 kts 204°
2026-04-29 10:23 5.03095 6.95779 197 ft 138 kts 206°
2026-04-29 10:24 5.02269 6.95338 95 ft 127 kts 206°
2026-04-29 10:24 5.01571 6.94973 76 ft 95 kts 208°